sat.trackr.live / text

‹ back to catalog

STARLINK-3912

NORAD 52502 · 2022-049BD

PAYLOAD ACTIVE UNKNOWN

§ Identity

Operator
Country
US
Launch date
2022-05-06
Launch site
AFETR
Launch vehicle
Mass (kg)
RCS (m²)

Purposes: comms

External: N2YO · Heavens-Above · Gunter

§ Orbital elements

Epoch: 2026-05-25T03:49:32.899584Z

Period
95.44 min
Inclination
53.2143°
Eccentricity
0.0001715
Mean motion
15.08839490 rev/d
Perigee alt
538.6 km
Apogee alt
540.9 km
Semi-major
6,917.9 km
B*
6.7079e-5
RAAN
55.8608°
Arg perigee
62.7244°
Mean anomaly
297.3923°
Rev number
22,407

§ Raw data

STARLINK-39121 52502U 22049BD  26145.15940856  .00000780  00000+0  67079-4 0  99942 52502  53.2143  55.8608 0001715  62.7244 297.3923 15.08839490224072

JSON: /api/v1/satellites/52502 · /tle

For live sub-satellite position, see the globe view (requires WebGL).

§ Visibility from observer

Set your observer location to see the next 7 days of passes ≥ 10°. The values pass through the URL so the page stays shareable.

No JS? Fill the form by hand. The geolocation button needs JavaScript.